"read_dt","SO2 (ppb)","flags","PMT voltage (V)","lamp voltage (V)","lamp intensity (Hz)","internal temp (C)","react chamber temp (C)","sample flow (l/min)","pres (mmHg)","SO2 bkg (ppb)","SO2 coefficient"
2015-07-14 00:00:00,1750E-3,5C000000,-0724,0820,12064,036.3,045.8,0.462,732.4,01.19,0.508
2015-07-14 00:01:00,1842E-3,5C000000,-0724,0821,12228,036.3,045.7,0.463,732.4,01.19,0.508
2015-07-14 00:02:00,1681E-3,5C000000,-0724,0821,12411,036.3,045.7,0.462,732.3,01.19,0.508
2015-07-14 00:03:00,1675E-3,5C000000,-0724,0820,12367,036.3,045.7,0.463,732.3,01.19,0.508
2015-07-14 00:04:00,1689E-3,5C000000,-0724,0821,12169,036.3,045.7,0.462,732.2,01.19,0.508
2015-07-14 00:05:00,1751E-3,5C000000,-0724,0821,12346,036.3,045.7,0.463,732.2,01.19,0.508
2015-07-14 00:06:00,1741E-3,5C000000,-0724,0820,12224,036.3,045.7,0.462,732.3,01.19,0.508
2015-07-14 00:07:00,1745E-3,5C000000,-0724,0820,12263,036.3,045.7,0.463,732.3,01.19,0.508
2015-07-14 00:08:00,1746E-3,5C000000,-0724,0821,12391,036.3,045.7,0.462,732.4,01.19,0.508
2015-07-14 00:09:00,1713E-3,5C000000,-0724,0820,12349,036.2,045.7,0.463,732.2,01.19,0.508
2015-07-14 00:10:00,1659E-3,5C000000,-0724,0820,12226,036.3,045.7,0.462,732.2,01.19,0.508
2015-07-14 00:11:00,1610E-3,5C000000,-0724,0820,12319,036.3,045.7,0.463,732.4,01.19,0.508
2015-07-14 00:12:00,1664E-3,5C000000,-0724,0821,12113,036.3,045.7,0.462,732.3,01.19,0.508
2015-07-14 00:13:00,1772E-3,5C000000,-0724,0821,12421,036.2,045.7,0.463,732.3,01.19,0.508
2015-07-14 00:14:00,1760E-3,5C000000,-0724,0821,12338,036.2,045.8,0.462,732.3,01.19,0.508
2015-07-14 00:15:00,1680E-3,5C000000,-0724,0821,12222,036.2,045.8,0.463,732.3,01.19,0.508
2015-07-14 00:16:00,1683E-3,5C000000,-0724,0821,12237,036.2,045.7,0.462,732.3,01.19,0.508
2015-07-14 00:17:00,1856E-3,5C000000,-0724,0820,12373,036.2,045.7,0.463,732.3,01.19,0.508
2015-07-14 00:18:00,1658E-3,5C000000,-0724,0820,12257,036.2,045.7,0.462,732.3,01.19,0.508
2015-07-14 00:19:00,1630E-3,5C000000,-0724,0821,12272,036.2,045.8,0.463,732.2,01.19,0.508
2015-07-14 00:20:00,1769E-3,5C000000,-0724,0820,12200,036.2,045.8,0.463,732.4,01.19,0.508
2015-07-14 00:21:00,1708E-3,5C000000,-0724,0821,12355,036.2,045.7,0.463,732.2,01.19,0.508
2015-07-14 00:22:00,1673E-3,5C000000,-0724,0821,12187,036.2,045.7,0.463,732.2,01.19,0.508
2015-07-14 00:23:00,1779E-3,5C000000,-0724,0821,12209,036.2,045.7,0.463,732.4,01.19,0.508
2015-07-14 00:24:00,1619E-3,5C000000,-0724,0820,12319,036.2,045.7,0.463,732.3,01.19,0.508
2015-07-14 00:25:00,1672E-3,5C000000,-0724,0820,12354,036.2,045.7,0.462,732.3,01.19,0.508
2015-07-14 00:26:00,1659E-3,5C000000,-0724,0821,12365,036.2,045.7,0.463,732.3,01.19,0.508
2015-07-14 00:27:00,1682E-3,5C000000,-0724,0820,12287,036.2,045.7,0.462,732.4,01.19,0.508
2015-07-14 00:28:00,1771E-3,5C000000,-0724,0821,12251,036.2,045.7,0.463,732.4,01.19,0.508
2015-07-14 00:29:00,1698E-3,5C000000,-0724,0821,12358,036.2,045.7,0.463,732.4,01.19,0.508
2015-07-14 00:30:00,1721E-3,5C000000,-0724,0821,12290,036.2,045.7,0.463,732.4,01.19,0.508
2015-07-14 00:31:00,1653E-3,5C000000,-0724,0820,12257,036.2,045.7,0.463,732.3,01.19,0.508
2015-07-14 00:32:00,1788E-3,5C000000,-0724,0821,12312,036.2,045.7,0.462,732.3,01.19,0.508
2015-07-14 00:33:00,1595E-3,5C000000,-0724,0821,12208,036.2,045.7,0.463,732.2,01.19,0.508
2015-07-14 00:34:00,1671E-3,5C000000,-0724,0821,12260,036.2,045.8,0.463,732.3,01.19,0.508
2015-07-14 00:35:00,1650E-3,5C000000,-0724,0820,12351,036.1,045.7,0.463,732.3,01.19,0.508
2015-07-14 00:36:00,1710E-3,5C000000,-0724,0821,12390,036.1,045.7,0.463,732.4,01.19,0.508
2015-07-14 00:37:00,1683E-3,5C000000,-0724,0820,12260,036.2,045.7,0.462,732.3,01.19,0.508
2015-07-14 00:38:00,1682E-3,5C000000,-0724,0820,12290,036.1,045.8,0.463,732.3,01.19,0.508
2015-07-14 00:39:00,1668E-3,5C000000,-0724,0820,12355,036.1,045.7,0.463,732.2,01.19,0.508
2015-07-14 00:40:00,1655E-3,5C000000,-0724,0821,12376,036.1,045.7,0.463,732.4,01.19,0.508
2015-07-14 00:41:00,1721E-3,5C000000,-0724,0821,12360,036.1,045.7,0.463,732.4,01.19,0.508
2015-07-14 00:42:00,1789E-3,5C000000,-0724,0821,12361,036.1,045.7,0.463,732.3,01.19,0.508
2015-07-14 00:43:00,1779E-3,5C000000,-0724,0820,12224,036.1,045.7,0.463,732.2,01.19,0.508
2015-07-14 00:44:00,1782E-3,5C000000,-0724,0821,12072,036.1,045.7,0.463,732.3,01.19,0.508
2015-07-14 00:45:00,1801E-3,5C000000,-0724,0821,12212,036.1,045.7,0.463,732.3,01.19,0.508
2015-07-14 00:46:00,1829E-3,5C000000,-0724,0820,12185,036.1,045.7,0.463,732.3,01.19,0.508
2015-07-14 00:47:00,1672E-3,5C000000,-0724,0821,12265,036.1,045.7,0.463,732.3,01.19,0.508
2015-07-14 00:48:00,1560E-3,5C000000,-0724,0822,12098,036.1,045.7,0.463,732.2,01.19,0.508
2015-07-14 00:49:00,1513E-3,5C000000,-0724,0821,12465,036.1,045.7,0.462,732.3,01.19,0.508
2015-07-14 00:50:00,1759E-3,5C000000,-0724,0821,12342,036.1,045.7,0.463,732.2,01.19,0.508
2015-07-14 00:51:00,1901E-3,5C000000,-0724,0821,12420,036.1,045.7,0.463,732.3,01.19,0.508
2015-07-14 00:52:00,1680E-3,5C000000,-0724,0821,12170,036.1,045.7,0.463,732.4,01.19,0.508
2015-07-14 00:53:00,1733E-3,5C000000,-0724,0821,12309,036.1,045.7,0.463,732.3,01.19,0.508
2015-07-14 00:54:00,1825E-3,5C000000,-0724,0821,12156,036.1,045.7,0.463,732.1,01.19,0.508
2015-07-14 00:55:00,1756E-3,5C000000,-0724,0821,12375,036.1,045.7,0.463,732.3,01.19,0.508
2015-07-14 00:56:00,1822E-3,5C000000,-0724,0821,12232,036.1,045.7,0.463,732.1,01.19,0.508
2015-07-14 00:57:00,1733E-3,5C000000,-0724,0821,12282,036.1,045.7,0.463,732.2,01.19,0.508
2015-07-14 00:58:00,1723E-3,5C000000,-0724,0821,12365,036.1,045.7,0.463,732.2,01.19,0.508
2015-07-14 00:59:00,1836E-3,5C000000,-0724,0820,12303,036.1,045.8,0.463,732.1,01.19,0.508
2015-07-14 01:00:00,1734E-3,5C000000,-0724,0821,12293,036.0,045.7,0.463,732.1,01.19,0.508
2015-07-14 01:01:00,1653E-3,5C000000,-0724,0821,12233,036.0,045.7,0.463,732.2,01.19,0.508
2015-07-14 01:02:00,1547E-3,5C000000,-0724,0821,12405,036.0,045.7,0.463,732.3,01.19,0.508
2015-07-14 01:03:00,1650E-3,5C000000,-0724,0821,12118,036.0,045.7,0.463,732.3,01.19,0.508
2015-07-14 01:04:00,1646E-3,5C000000,-0724,0820,12347,036.0,045.7,0.463,732.3,01.19,0.508
2015-07-14 01:05:00,1726E-3,5C000000,-0724,0821,12389,036.0,045.7,0.463,732.3,01.19,0.508
2015-07-14 01:06:00,1649E-3,5C000000,-0724,0821,12113,036.0,045.7,0.463,732.3,01.19,0.508
2015-07-14 01:07:00,1579E-3,5C000000,-0724,0821,12427,036.0,045.7,0.463,732.3,01.19,0.508
2015-07-14 01:08:00,1677E-3,5C000000,-0724,0821,12207,036.0,045.7,0.463,732.3,01.19,0.508
2015-07-14 01:09:00,1748E-3,5C000000,-0724,0822,12151,036.0,045.7,0.463,732.2,01.19,0.508
2015-07-14 01:10:00,1432E-3,5C000000,-0724,0821,12161,036.0,045.7,0.463,732.3,01.19,0.508
2015-07-14 01:11:00,1567E-3,5C000000,-0724,0821,12378,036.0,045.7,0.463,732.2,01.19,0.508
2015-07-14 01:12:00,1758E-3,5C000000,-0724,0821,12333,036.0,045.7,0.463,732.2,01.19,0.508
2015-07-14 01:13:00,1654E-3,5C000000,-0724,0821,12235,036.0,045.7,0.463,732.1,01.19,0.508
2015-07-14 01:14:00,1655E-3,5C000000,-0724,0819,12311,036.0,045.7,0.463,732.2,01.19,0.508
2015-07-14 01:15:00,1782E-3,5C000000,-0724,0820,12426,036.0,045.7,0.463,732.2,01.19,0.508
2015-07-14 01:16:00,1728E-3,5C000000,-0724,0820,12250,035.9,045.7,0.463,732.2,01.19,0.508
2015-07-14 01:17:00,1676E-3,5C000000,-0724,0821,12404,036.0,045.7,0.463,732.2,01.19,0.508
2015-07-14 01:18:00,1715E-3,5C000000,-0724,0820,12448,036.0,045.7,0.463,732.1,01.19,0.508
2015-07-14 01:19:00,1699E-3,5C000000,-0724,0821,12219,036.0,045.7,0.463,732.2,01.19,0.508
2015-07-14 01:20:00,1775E-3,5C000000,-0724,0821,12223,036.0,045.7,0.463,732.2,01.19,0.508
2015-07-14 01:21:00,1569E-3,5C000000,-0724,0821,12316,036.0,045.7,0.463,732.2,01.19,0.508
2015-07-14 01:22:00,1598E-3,5C000000,-0724,0821,12319,035.9,045.7,0.463,732.2,01.19,0.508
2015-07-14 01:23:00,1592E-3,5C000000,-0724,0819,12192,035.9,045.7,0.463,732.0,01.19,0.508
2015-07-14 01:24:00,1639E-3,5C000000,-0724,0821,12226,036.0,045.7,0.463,732.1,01.19,0.508
2015-07-14 01:25:00,1675E-3,5C000000,-0724,0821,12352,035.9,045.7,0.463,732.1,01.19,0.508
2015-07-14 01:26:00,1751E-3,5C000000,-0724,0821,12376,035.9,045.7,0.463,732.2,01.19,0.508
2015-07-14 01:27:00,1658E-3,5C000000,-0724,0821,12153,035.9,045.7,0.463,732.2,01.19,0.508
2015-07-14 01:28:00,1796E-3,5C000000,-0724,0820,12117,035.9,045.7,0.463,732.1,01.19,0.508
2015-07-14 01:29:00,1706E-3,5C000000,-0724,0821,12045,035.9,045.7,0.463,732.2,01.19,0.508
2015-07-14 01:30:00,1703E-3,5C000000,-0724,0820,12283,035.9,045.7,0.463,732.1,01.19,0.508
2015-07-14 01:31:00,1778E-3,5C000000,-0724,0821,12294,035.9,045.7,0.463,732.2,01.19,0.508
2015-07-14 01:32:00,1694E-3,5C000000,-0724,0820,12317,035.9,045.7,0.463,732.1,01.19,0.508
2015-07-14 01:33:00,1654E-3,5C000000,-0724,0821,12312,035.9,045.7,0.463,732.1,01.19,0.508
2015-07-14 01:34:00,1726E-3,5C000000,-0724,0820,12160,035.9,045.7,0.463,732.2,01.19,0.508
2015-07-14 01:35:00,1755E-3,5C000000,-0724,0821,12198,035.9,045.7,0.463,732.2,01.19,0.508
2015-07-14 01:36:00,1709E-3,5C000000,-0724,0820,12234,035.9,045.7,0.463,732.2,01.19,0.508
2015-07-14 01:37:00,1675E-3,5C000000,-0724,0820,12204,035.9,045.7,0.463,732.0,01.19,0.508
2015-07-14 01:38:00,1747E-3,5C000000,-0724,0821,12164,035.9,045.7,0.463,732.1,01.19,0.508
2015-07-14 01:39:00,1717E-3,5C000000,-0724,0821,12225,035.9,045.7,0.463,732.2,01.19,0.508
2015-07-14 01:40:00,1722E-3,5C000000,-0724,0821,12323,035.9,045.7,0.463,732.1,01.19,0.508
2015-07-14 01:41:00,1707E-3,5C000000,-0724,0821,12328,035.9,045.7,0.463,732.2,01.19,0.508
2015-07-14 01:42:00,1652E-3,5C000000,-0724,0820,12389,035.9,045.7,0.463,732.2,01.19,0.508
2015-07-14 01:43:00,1622E-3,5C000000,-0724,0821,12347,035.9,045.7,0.463,732.2,01.19,0.508
2015-07-14 01:44:00,1686E-3,5C000000,-0724,0821,12261,035.9,045.7,0.463,732.2,01.19,0.508
2015-07-14 01:45:00,1686E-3,5C000000,-0724,0820,12267,035.9,045.7,0.463,732.0,01.19,0.508
2015-07-14 01:46:00,1709E-3,5C000000,-0724,0821,12340,035.9,045.7,0.463,732.1,01.19,0.508
2015-07-14 01:47:00,1721E-3,5C000000,-0724,0820,12283,035.9,045.7,0.463,732.2,01.19,0.508
2015-07-14 01:48:00,1807E-3,5C000000,-0724,0820,12475,035.8,045.7,0.463,732.1,01.19,0.508
2015-07-14 01:49:00,1573E-3,5C000000,-0724,0820,12224,035.9,045.7,0.463,732.2,01.19,0.508
2015-07-14 01:50:00,1764E-3,5C000000,-0724,0821,12303,035.9,045.7,0.463,732.2,01.19,0.508
2015-07-14 01:51:00,1783E-3,5C000000,-0724,0820,12324,035.8,045.7,0.463,732.1,01.19,0.508
2015-07-14 01:52:00,1735E-3,5C000000,-0724,0821,12108,035.9,045.7,0.463,732.2,01.19,0.508
2015-07-14 01:53:00,1627E-3,5C000000,-0724,0821,12348,035.9,045.7,0.463,732.2,01.19,0.508
2015-07-14 01:54:00,1697E-3,5C000000,-0724,0821,12320,035.8,045.7,0.463,732.1,01.19,0.508
2015-07-14 01:55:00,1716E-3,5C000000,-0724,0820,12322,035.8,045.7,0.463,732.0,01.19,0.508
2015-07-14 01:56:00,1657E-3,5C000000,-0724,0822,12222,035.9,045.7,0.463,732.1,01.19,0.508
2015-07-14 01:57:00,1695E-3,5C000000,-0724,0820,12343,035.8,045.7,0.463,732.1,01.19,0.508
2015-07-14 01:58:00,1721E-3,5C000000,-0724,0821,12385,035.8,045.7,0.463,732.0,01.19,0.508
2015-07-14 01:59:00,1786E-3,5C000000,-0724,0821,12340,035.8,045.7,0.463,732.0,01.19,0.508
2015-07-14 02:00:00,1726E-3,5C000000,-0724,0820,12312,035.8,045.7,0.463,732.0,01.19,0.508
2015-07-14 02:01:00,1725E-3,5C000000,-0724,0821,12244,035.8,045.7,0.463,732.0,01.19,0.508
2015-07-14 02:02:00,1682E-3,5C000000,-0724,0821,12365,035.8,045.7,0.463,732.0,01.19,0.508
2015-07-14 02:03:00,1773E-3,5C000000,-0724,0821,12289,035.8,045.7,0.463,732.0,01.19,0.508
2015-07-14 02:04:00,1770E-3,5C000000,-0724,0821,12246,035.8,045.7,0.463,732.0,01.19,0.508
2015-07-14 02:05:00,1741E-3,5C000000,-0724,0821,12306,035.8,045.7,0.463,732.0,01.19,0.508
2015-07-14 02:06:00,1507E-3,5C000000,-0724,0821,12347,035.8,045.7,0.463,732.0,01.19,0.508
2015-07-14 02:07:00,1710E-3,5C000000,-0724,0821,12174,035.8,045.7,0.463,732.0,01.19,0.508
2015-07-14 02:08:00,1605E-3,5C000000,-0724,0822,12242,035.8,045.7,0.463,732.0,01.19,0.508
2015-07-14 02:09:00,1606E-3,5C000000,-0724,0821,12321,035.8,045.7,0.463,732.0,01.19,0.508
2015-07-14 02:10:00,1758E-3,5C000000,-0724,0820,12270,035.8,045.7,0.463,732.0,01.19,0.508
2015-07-14 02:11:00,1776E-3,5C000000,-0724,0821,12266,035.8,045.7,0.464,732.0,01.19,0.508
2015-07-14 02:12:00,1657E-3,5C000000,-0724,0821,12402,035.8,045.7,0.463,732.0,01.19,0.508
2015-07-14 02:13:00,1795E-3,5C000000,-0724,0821,12124,035.8,045.7,0.463,732.0,01.19,0.508
2015-07-14 02:14:00,1680E-3,5C000000,-0724,0820,12282,035.8,045.7,0.463,732.0,01.19,0.508
2015-07-14 02:15:00,1659E-3,5C000000,-0724,0821,12201,035.8,045.7,0.463,732.1,01.19,0.508
2015-07-14 02:16:00,1697E-3,5C000000,-0724,0821,12350,035.8,045.7,0.463,732.1,01.19,0.508
2015-07-14 02:17:00,1632E-3,5C000000,-0724,0820,12150,035.8,045.7,0.463,732.0,01.19,0.508
2015-07-14 02:18:00,1709E-3,5C000000,-0724,0821,12265,035.8,045.7,0.463,732.0,01.19,0.508
2015-07-14 02:19:00,1671E-3,5C000000,-0724,0821,12243,035.8,045.7,0.464,732.0,01.19,0.508
2015-07-14 02:20:00,1728E-3,5C000000,-0724,0820,12243,035.8,045.7,0.463,732.1,01.19,0.508
2015-07-14 02:21:00,1674E-3,5C000000,-0724,0820,12147,035.8,045.7,0.463,732.0,01.19,0.508
2015-07-14 02:22:00,1694E-3,5C000000,-0724,0821,12294,035.8,045.7,0.463,732.0,01.19,0.508
2015-07-14 02:23:00,1655E-3,5C000000,-0724,0820,12344,035.8,045.7,0.463,732.1,01.19,0.508
2015-07-14 02:24:00,1582E-3,5C000000,-0724,0821,12150,035.8,045.7,0.463,732.0,01.19,0.508
2015-07-14 02:25:00,1702E-3,5C000000,-0724,0820,12190,035.8,045.7,0.463,732.1,01.19,0.508
2015-07-14 02:26:00,1714E-3,5C000000,-0724,0820,12112,035.8,045.7,0.463,732.0,01.19,0.508
2015-07-14 02:27:00,1791E-3,5C000000,-0724,0821,12429,035.8,045.7,0.463,732.1,01.19,0.508
2015-07-14 02:28:00,1641E-3,5C000000,-0724,0821,12423,035.8,045.7,0.464,732.0,01.19,0.508
2015-07-14 02:29:00,1791E-3,5C000000,-0724,0821,12264,035.8,045.7,0.464,732.0,01.19,0.508
2015-07-14 02:30:00,1571E-3,5C000000,-0724,0821,12321,035.8,045.7,0.463,732.0,01.19,0.508
2015-07-14 02:31:00,1705E-3,5C000000,-0724,0820,12308,035.7,045.7,0.463,732.0,01.19,0.508
2015-07-14 02:32:00,1641E-3,5C000000,-0724,0821,12149,035.8,045.7,0.463,732.0,01.19,0.508
2015-07-14 02:33:00,1638E-3,5C000000,-0724,0821,12292,035.8,045.7,0.463,732.0,01.19,0.508
2015-07-14 02:34:00,1803E-3,5C000000,-0724,0822,12440,035.8,045.7,0.463,732.0,01.19,0.508
2015-07-14 02:35:00,1762E-3,5C000000,-0724,0821,12288,035.7,045.7,0.463,732.0,01.19,0.508
2015-07-14 02:36:00,1585E-3,5C000000,-0724,0821,12141,035.8,045.7,0.463,731.9,01.19,0.508
2015-07-14 02:37:00,1710E-3,5C000000,-0724,0821,12326,035.8,045.7,0.463,732.1,01.19,0.508
2015-07-14 02:38:00,1760E-3,5C000000,-0724,0820,12403,035.7,045.7,0.463,732.1,01.19,0.508
2015-07-14 02:39:00,1668E-3,5C000000,-0724,0820,12323,035.8,045.7,0.464,732.1,01.19,0.508
2015-07-14 02:40:00,1779E-3,5C000000,-0724,0820,12257,035.7,045.7,0.464,732.0,01.19,0.508
2015-07-14 02:41:00,1683E-3,5C000000,-0724,0820,12242,035.7,045.7,0.464,732.0,01.19,0.508
2015-07-14 02:42:00,1740E-3,5C000000,-0724,0820,12232,035.8,045.7,0.464,732.0,01.19,0.508
2015-07-14 02:43:00,1644E-3,5C000000,-0724,0820,12306,035.7,045.7,0.463,732.0,01.19,0.508
2015-07-14 02:44:00,1741E-3,5C000000,-0724,0821,12190,035.7,045.7,0.463,732.0,01.19,0.508
2015-07-14 02:45:00,1781E-3,5C000000,-0724,0820,12307,035.7,045.7,0.463,732.0,01.19,0.508
2015-07-14 02:46:00,1468E-3,5C000000,-0724,0820,12304,035.7,045.7,0.463,732.0,01.19,0.508
2015-07-14 02:47:00,1661E-3,5C000000,-0724,0821,12302,035.7,045.7,0.463,732.0,01.19,0.508
2015-07-14 02:48:00,1623E-3,5C000000,-0724,0820,12194,035.7,045.7,0.463,732.0,01.19,0.508
2015-07-14 02:49:00,1671E-3,5C000000,-0724,0821,12228,035.7,045.7,0.463,732.0,01.19,0.508
2015-07-14 02:50:00,1748E-3,5C000000,-0724,0821,12289,035.7,045.7,0.463,731.9,01.19,0.508
2015-07-14 02:51:00,1743E-3,5C000000,-0724,0820,12159,035.7,045.7,0.463,732.0,01.19,0.508
2015-07-14 02:52:00,1647E-3,5C000000,-0724,0820,12403,035.7,045.7,0.463,732.0,01.19,0.508
2015-07-14 02:53:00,1708E-3,5C000000,-0724,0821,12290,035.7,045.7,0.463,732.2,01.19,0.508
2015-07-14 02:54:00,1630E-3,5C000000,-0724,0820,12271,035.7,045.7,0.463,732.2,01.19,0.508
2015-07-14 02:55:00,1614E-3,5C000000,-0724,0820,12258,035.7,045.7,0.463,732.2,01.19,0.508
2015-07-14 02:56:00,1788E-3,5C000000,-0724,0821,12158,035.7,045.7,0.464,732.1,01.19,0.508
2015-07-14 02:57:00,1773E-3,5C000000,-0724,0820,12356,035.7,045.7,0.463,732.0,01.19,0.508
2015-07-14 02:58:00,1706E-3,5C000000,-0724,0821,12237,035.7,045.7,0.464,732.0,01.19,0.508
2015-07-14 02:59:00,1589E-3,5C000000,-0724,0820,12206,035.7,045.7,0.464,732.1,01.19,0.508
2015-07-14 03:00:00,1730E-3,5C000000,-0724,0820,12161,035.7,045.7,0.464,732.2,01.19,0.508
2015-07-14 03:01:00,1672E-3,5C000000,-0724,0821,12303,035.7,045.7,0.464,732.2,01.19,0.508
2015-07-14 03:02:00,1692E-3,5C000000,-0724,0820,12228,035.7,045.7,0.464,732.1,01.19,0.508
2015-07-14 03:03:00,1544E-3,5C000000,-0724,0820,12433,035.7,045.7,0.464,732.1,01.19,0.508
2015-07-14 03:04:00,1808E-3,5C000000,-0724,0821,12156,035.7,045.7,0.464,732.2,01.19,0.508
2015-07-14 03:05:00,1658E-3,5C000000,-0724,0821,12282,035.7,045.7,0.464,732.2,01.19,0.508
2015-07-14 03:06:00,1676E-3,5C000000,-0724,0821,12162,035.7,045.7,0.464,732.2,01.19,0.508
2015-07-14 03:07:00,1695E-3,5C000000,-0724,0821,12365,035.7,045.7,0.464,732.1,01.19,0.508
2015-07-14 03:08:00,1761E-3,5C000000,-0724,0822,12364,035.7,045.7,0.464,732.2,01.19,0.508
2015-07-14 03:09:00,1733E-3,5C000000,-0724,0820,12160,035.7,045.7,0.464,732.2,01.19,0.508
2015-07-14 03:10:00,1662E-3,5C000000,-0724,0821,12214,035.6,045.7,0.464,732.1,01.19,0.508
2015-07-14 03:11:00,1760E-3,5C000000,-0724,0821,12336,035.6,045.7,0.464,732.2,01.19,0.508
2015-07-14 03:12:00,1684E-3,5C000000,-0724,0821,12359,035.6,045.7,0.464,732.3,01.19,0.508
2015-07-14 03:13:00,1709E-3,5C000000,-0724,0821,12439,035.6,045.7,0.464,732.3,01.19,0.508
2015-07-14 03:14:00,1689E-3,5C000000,-0724,0821,12168,035.6,045.7,0.464,732.2,01.19,0.508
2015-07-14 03:15:00,1876E-3,5C000000,-0724,0821,12251,035.6,045.7,0.464,732.3,01.19,0.508
2015-07-14 03:16:00,1722E-3,5C000000,-0724,0821,12373,035.6,045.7,0.464,732.2,01.19,0.508
2015-07-14 03:17:00,1726E-3,5C000000,-0724,0821,12255,035.7,045.7,0.464,732.3,01.19,0.508
2015-07-14 03:18:00,1646E-3,5C000000,-0724,0821,12228,035.6,045.7,0.464,732.3,01.19,0.508
2015-07-14 03:19:00,1750E-3,5C000000,-0724,0821,12438,035.6,045.7,0.464,732.2,01.19,0.508
2015-07-14 03:20:00,1771E-3,5C000000,-0724,0821,12300,035.6,045.7,0.464,732.3,01.19,0.508
2015-07-14 03:21:00,1625E-3,5C000000,-0724,0820,12237,035.6,045.7,0.464,732.2,01.19,0.508
2015-07-14 03:22:00,1793E-3,5C000000,-0724,0821,12292,035.6,045.7,0.464,732.3,01.19,0.508
2015-07-14 03:23:00,1695E-3,5C000000,-0724,0820,12159,035.6,045.7,0.464,732.3,01.19,0.508
2015-07-14 03:24:00,1826E-3,5C000000,-0724,0821,12260,035.6,045.7,0.464,732.4,01.19,0.508
2015-07-14 03:25:00,1740E-3,5C000000,-0724,0820,12311,035.6,045.7,0.464,732.4,01.19,0.508
2015-07-14 03:26:00,1709E-3,5C000000,-0724,0821,12228,035.6,045.7,0.464,732.4,01.19,0.508
2015-07-14 03:27:00,1846E-3,5C000000,-0724,0821,12257,035.6,045.7,0.464,732.4,01.19,0.508
2015-07-14 03:28:00,1654E-3,5C000000,-0724,0821,12209,035.6,045.7,0.464,732.3,01.19,0.508
2015-07-14 03:29:00,1776E-3,5C000000,-0724,0821,12337,035.6,045.7,0.464,732.4,01.19,0.508
2015-07-14 03:30:00,1640E-3,5C000000,-0724,0821,12155,035.6,045.7,0.464,732.4,01.19,0.508
2015-07-14 03:31:00,1679E-3,5C000000,-0724,0820,12252,035.6,045.7,0.464,732.5,01.19,0.508
2015-07-14 03:32:00,1688E-3,5C000000,-0724,0820,12215,035.6,045.7,0.463,732.5,01.19,0.508
2015-07-14 03:33:00,1612E-3,5C000000,-0724,0821,12310,035.6,045.7,0.463,732.5,01.19,0.508
2015-07-14 03:34:00,1652E-3,5C000000,-0724,0821,12179,035.6,045.7,0.463,732.5,01.19,0.508
2015-07-14 03:35:00,1635E-3,5C000000,-0724,0821,12318,035.6,045.7,0.463,732.3,01.19,0.508
2015-07-14 03:36:00,1637E-3,5C000000,-0724,0820,12319,035.6,045.7,0.463,732.3,01.19,0.508
2015-07-14 03:37:00,1760E-3,5C000000,-0724,0820,12234,035.6,045.7,0.463,732.3,01.19,0.508
2015-07-14 03:38:00,1668E-3,5C000000,-0724,0821,12035,035.6,045.7,0.463,732.4,01.19,0.508
2015-07-14 03:39:00,1725E-3,5C000000,-0724,0821,12141,035.6,045.7,0.463,732.4,01.19,0.508
2015-07-14 03:40:00,1783E-3,5C000000,-0724,0821,12226,035.6,045.7,0.463,732.3,01.19,0.508
2015-07-14 03:41:00,1679E-3,5C000000,-0724,0821,12311,035.6,045.7,0.463,732.4,01.19,0.508
2015-07-14 03:42:00,1761E-3,5C000000,-0724,0822,12151,035.6,045.7,0.464,732.4,01.19,0.508
2015-07-14 03:43:00,1754E-3,5C000000,-0724,0821,12280,035.6,045.7,0.464,732.4,01.19,0.508
2015-07-14 03:44:00,1780E-3,5C000000,-0724,0821,12279,035.6,045.7,0.464,732.5,01.19,0.508
2015-07-14 03:45:00,1717E-3,5C000000,-0724,0821,12234,035.6,045.7,0.464,732.3,01.19,0.508
2015-07-14 03:46:00,1698E-3,5C000000,-0724,0821,12226,035.5,045.7,0.464,732.4,01.19,0.508
2015-07-14 03:47:00,1762E-3,5C000000,-0724,0822,12234,035.5,045.7,0.464,732.5,01.19,0.508
2015-07-14 03:48:00,1503E-3,5C000000,-0724,0820,12143,035.5,045.7,0.464,732.5,01.19,0.508
2015-07-14 03:49:00,1757E-3,5C000000,-0724,0820,12354,035.5,045.7,0.464,732.5,01.19,0.508
2015-07-14 03:50:00,1637E-3,5C000000,-0724,0821,12311,035.5,045.7,0.464,732.5,01.19,0.508
2015-07-14 03:51:00,1612E-3,5C000000,-0724,0821,12320,035.5,045.7,0.464,732.4,01.19,0.508
2015-07-14 03:52:00,1783E-3,5C000000,-0724,0820,12106,035.5,045.7,0.464,732.5,01.19,0.508
2015-07-14 03:53:00,1749E-3,5C000000,-0724,0820,12171,035.5,045.7,0.464,732.5,01.19,0.508
2015-07-14 03:54:00,1515E-3,5C000000,-0724,0821,12297,035.5,045.7,0.464,732.4,01.19,0.508
2015-07-14 03:55:00,1732E-3,5C000000,-0724,0821,12197,035.5,045.7,0.464,732.5,01.19,0.508
2015-07-14 03:56:00,1750E-3,5C000000,-0724,0820,12290,035.5,045.7,0.464,732.5,01.19,0.508
2015-07-14 03:57:00,1691E-3,5C000000,-0724,0821,12376,035.5,045.7,0.464,732.5,01.19,0.508
2015-07-14 03:58:00,1487E-3,5C000000,-0724,0820,12341,035.5,045.7,0.464,732.5,01.19,0.508
2015-07-14 03:59:00,1712E-3,5C000000,-0724,0821,12339,035.5,045.7,0.464,732.5,01.19,0.508
2015-07-14 04:00:00,1566E-3,5C000000,-0724,0821,12273,035.5,045.7,0.464,732.3,01.19,0.508
2015-07-14 04:01:00,1674E-3,5C000000,-0724,0820,12265,035.5,045.7,0.464,732.4,01.19,0.508
2015-07-14 04:02:00,1757E-3,5C000000,-0724,0821,12200,035.5,045.7,0.463,732.4,01.19,0.508
2015-07-14 04:03:00,1682E-3,5C000000,-0724,0821,12226,035.5,045.7,0.463,732.4,01.19,0.508
2015-07-14 04:04:00,1720E-3,5C000000,-0724,0821,12317,035.5,045.7,0.463,732.4,01.19,0.508
2015-07-14 04:05:00,1636E-3,5C000000,-0724,0821,12283,035.5,045.7,0.464,732.5,01.19,0.508
2015-07-14 04:06:00,1558E-3,5C000000,-0724,0821,12380,035.5,045.7,0.464,732.5,01.19,0.508
2015-07-14 04:07:00,1551E-3,5C000000,-0724,0821,12154,035.5,045.7,0.464,732.5,01.19,0.508
2015-07-14 04:08:00,1730E-3,5C000000,-0724,0821,12323,035.5,045.7,0.464,732.5,01.19,0.508
2015-07-14 04:09:00,1795E-3,5C000000,-0724,0821,12271,035.5,045.7,0.464,732.4,01.19,0.508
2015-07-14 04:10:00,1738E-3,5C000000,-0724,0820,12180,035.5,045.7,0.464,732.5,01.19,0.508
2015-07-14 04:11:00,1730E-3,5C000000,-0724,0822,12363,035.5,045.7,0.464,732.6,01.19,0.508
2015-07-14 04:12:00,1784E-3,5C000000,-0724,0821,12274,035.4,045.7,0.464,732.4,01.19,0.508
2015-07-14 04:13:00,1762E-3,5C000000,-0724,0821,12415,035.4,045.7,0.464,732.5,01.19,0.508
2015-07-14 04:14:00,1745E-3,5C000000,-0724,0821,12364,035.4,045.7,0.464,732.6,01.19,0.508
2015-07-14 04:15:00,1712E-3,5C000000,-0724,0821,12112,035.5,045.7,0.464,732.6,01.19,0.508
2015-07-14 04:16:00,1794E-3,5C000000,-0724,0820,12281,035.4,045.7,0.464,732.7,01.19,0.508
2015-07-14 04:17:00,1616E-3,5C000000,-0724,0820,12331,035.4,045.7,0.464,732.6,01.19,0.508
2015-07-14 04:18:00,1772E-3,5C000000,-0724,0821,12166,035.4,045.7,0.464,732.6,01.19,0.508
2015-07-14 04:19:00,1781E-3,5C000000,-0724,0821,12446,035.4,045.7,0.464,732.6,01.19,0.508
2015-07-14 04:20:00,1684E-3,5C000000,-0724,0820,12244,035.4,045.7,0.464,732.6,01.19,0.508